Phoenix Deer Valley, AZ

3:35 AM MST on October 18, 2017 (GMT -0700)
Phoenix-Deer Valley Municipal

Weather History for KDVT - April, 2013

Change the Weather History Date:

Friday, April 5, 2013

  Actual Average Record
Temperature  
Mean Temperature 72 °F -  
Max Temperature 84 °F 73 °F 89 °F (2007)
Min Temperature 61 °F 50 °F 39 °F (1999)
Cooling Degree Days 8    
Growing Degree Days 22 (Base 50)    
Moisture  
Dew Point 31 °F    
Average Humidity 22    
Maximum Humidity 31    
Minimum Humidity 11    
Precipitation  
Precipitation 0.00 in - - ()
Sea Level Pressure  
Sea Level Pressure 29.83 in    
Wind  
Wind Speed 5 mph (South)    
Max Wind Speed 18 mph    
Max Gust Speed 24 mph    
Visibility 10 miles    
Events      
Averages and records for this station are not official NWS values.
T = Trace of Precipitation, MM = Missing Value Source: NWS Daily Summary

Daily Weather History Graph

Daily Weather History Graph

Search for Another Location

Airport or City:

Trip Planner

Search our weather history database for the weather conditions in past years. The results will help you decide how hot, cold, wet, or windy it might be!

Date:

Astronomy

Apr. 05, 2013 Rise Set
Actual Time 6:10 AM MST 6:52 PM MST
Civil Twilight 5:44 AM MST 7:17 PM MST
Nautical Twilight 5:15 AM MST 7:47 PM MST
Astronomical Twilight 4:44 AM MST 8:17 PM MST
Moon 3:06 AM MST (4/5) 2:32 PM MST (4/5)
Length of Visible Light 13h 32m
Length of Day
12h 42m
Waning Crescent, 22% of the Moon is Illuminated
Apr 5
Waning Crescent
Apr 10
New
Apr 18
First Quarter
Apr 25
Full
May 2
Last Quarter

Hourly Weather History & Observations

Time (MST) Temp. Dew Point Humidity Pressure Visibility Wind Dir Wind Speed Gust Speed Precip Events Conditions
12:53 AM 69.1 °F 30.0 °F 23% 29.85 in 10.0 mi ENE 4.6 mph - N/A   Clear
1:53 AM 66.9 °F 30.9 °F 26% 29.85 in 10.0 mi Calm Calm - N/A   Clear
2:53 AM 64.9 °F 32.0 °F 29% 29.85 in 10.0 mi Calm Calm - N/A   Clear
3:53 AM 68.0 °F 30.0 °F 24% 29.84 in 10.0 mi East 6.9 mph - N/A   Clear
4:53 AM 66.9 °F 30.0 °F 25% 29.84 in 10.0 mi East 8.1 mph - N/A   Clear
5:53 AM 61.0 °F 30.0 °F 31% 29.86 in 10.0 mi East 5.8 mph - N/A   Clear
6:53 AM 62.1 °F 30.9 °F 31% 29.87 in 10.0 mi Calm Calm - N/A   Clear
7:53 AM 69.1 °F 34.0 °F 27% 29.88 in 10.0 mi Calm Calm - N/A   Clear
8:53 AM 71.1 °F 37.0 °F 29% 29.89 in 10.0 mi Variable 3.5 mph - N/A   Clear
9:53 AM 73.9 °F 39.0 °F 28% 29.89 in 10.0 mi SSE 3.5 mph - N/A   Clear
10:53 AM 77.0 °F 39.0 °F 25% 29.88 in 10.0 mi Variable 4.6 mph - N/A   Clear
11:53 AM 80.1 °F 37.0 °F 21% 29.86 in 10.0 mi SE 3.5 mph - N/A   Clear
12:53 PM 82.0 °F 33.1 °F 17% 29.84 in 10.0 mi Variable 5.8 mph - N/A   Clear
1:53 PM 84.0 °F 32.0 °F 15% 29.81 in 10.0 mi WSW 13.8 mph 20.7 mph N/A   Clear
2:53 PM 84.9 °F 33.1 °F 16% 29.79 in 10.0 mi WSW 18.4 mph 24.2 mph N/A   Clear
3:53 PM 84.0 °F 30.9 °F 15% 29.78 in 10.0 mi SW 15.0 mph - N/A   Clear
4:53 PM 84.0 °F 30.0 °F 14% 29.78 in 10.0 mi WSW 11.5 mph - N/A   Clear
5:53 PM 82.9 °F 23.0 °F 11% 29.78 in 10.0 mi WSW 11.5 mph - N/A   Clear
6:53 PM 80.1 °F 24.1 °F 13% 29.77 in 10.0 mi SW 5.8 mph - N/A   Clear
7:53 PM 77.0 °F 25.0 °F 15% 29.78 in 10.0 mi Calm Calm - N/A   Clear
8:53 PM 73.9 °F 27.0 °F 18% 29.81 in 10.0 mi Calm Calm - N/A   Clear
9:53 PM 73.9 °F 28.0 °F 18% 29.82 in 10.0 mi South 3.5 mph - N/A   Clear
10:53 PM 71.1 °F 30.9 °F 23% 29.82 in 10.0 mi Calm Calm - N/A   Clear
11:53 PM 69.1 °F 30.9 °F 24% 29.83 in 10.0 mi Calm Calm - N/A   Clear